STARLINK-2723 (48476 NORAD) Tracking and Keplerian Element Data

This shows tracking and keplerian element data for the satellite.

Feedback or suggestion? Click here.




ElementValue
Catalog48476
NameSTARLINK-2723
Epoch Orbit1464
Epoch Day215.25002315
Epoch Year2021
RAAN170.8672
Inclination53.0524
Eccentricity0.0001693
Argument of Perigee75.4657
Mean Anonmoly89.1526
Mean Motion15.0477163
Decay Rate0.00014995
L11 48476U 21040BA 21215.25002315 .00014995 00000-0 10689-2 0 9999
L22 48476 53.0524 170.8672 0001693 75.4657 89.1526 15.04771630 14644

Live tracking and technical data element details for STARLINK-2723 (NORAD 48476). STARLINK-2723 can be tracked NOW for your location showing map with azimuth and elevation plus other details from your city location.

Track the satellite on the map from your city or location and see movement details for azimuth, elevation, latitude, longitude, range, height, and movement on the map or in text.







IsCatalogInMostPopularTable: catalog: 48476, numindb: 28
Update: records affected: 1



GetName: 48476 STARLINK-2723

Hit Count: updated at: Tue, 03 Aug 2021 21:42:40 GMT